Location: Jaite
(41.2884°N, 81.5737°W)
Time: 16:38:31
(UTC+00:00)

Cosmos 2278 - Pass Details

Date: 18 January 2020
Orbit: 840 x 853 km, 71.1° (Epoch: 19 February)

Event Time Altitude Azimuth Distance (km) Brightness Sun altitude
Rises 11:29:09 0° 220° (SW) 3,405 6.6 -14.8°
Reaches altitude 10° 11:31:41 10° 226° (SW) 2,474 5.8 -14.3°
Maximum altitude 11:37:08 46° 299° (WNW) 1,132 3.9 -13.3°
Drops below altitude 10° 11:42:38 10° 13° (NNE) 2,489 6.1 -12.3°
Sets 11:45:12 0° 19° (NNE) 3,427 6.9 -11.9°
